Flag for Germany Weather past 2 weeks in Seevetal, Lower Saxony, Germany

59 °F

Passing clouds.

Feels Like: 58 °F
Forecast: 56 / 59 °F
Wind: 8 mph from East

Location: Hamburg-Fuhlsbuettel

Current Time: Oct 7, 2015 at 1:09:53 AM

Latest Report: Oct 7, 2015 at 12:20 AM

Visibility: N/A

Pressure: 29.77 "Hg

Humidity: 82%

Dew point: 54 °F

Location of SeevetalLocation

Historic Weather in Seevetal — Graph


Seevetal temperature yesterday

Maximum temperature yesterday: 59 °F (at 12:50 PM)
Minimum temperature yesterday: 54 °F (at 1:50 AM)
Average temperature yesterday: 56 °F

Past Weeks' High & Low Weather Summary

High66 °F (Oct 3, 3:20 PM)100% (Sep 22, 10:20 PM)30.72 "Hg (Sep 22, 10:20 PM)
Low37 °F (Sep 29, 5:20 AM)49% (Oct 3, 3:20 PM)29.53 "Hg (Sep 22, 4:50 PM)
Average53 °F85%30.18 "Hg
* Reported Sep 21 11:20 PM — Oct 6 11:20 PM, Seevetal, Weather by CustomWeather, © 2015

Note: Actual official high and low records may vary slightly from our data, if they occured in-between our weather recording intervals... More about our weather records


Seevetal weather history for previous 24 hours

Time TempWeatherWind HumidityBarometerVisibility
11:20 PM
Tue, Oct 6
59 °FPassing clouds.12 mph82%29.77 "HgN/A
10:50 PM59 °FLight rain. Passing clouds.10 mph82%29.77 "Hg6 mi
10:20 PM59 °FPassing clouds.9 mph82%29.74 "Hg6 mi
9:50 PM59 °FPassing clouds.12 mph82%29.74 "Hg6 mi
9:20 PM59 °FPassing clouds.10 mph82%29.74 "Hg6 mi
8:50 PM59 °FPassing clouds.12 mph82%29.74 "Hg6 mi
8:20 PM59 °FPassing clouds.12 mph82%29.74 "Hg6 mi
7:50 PM59 °FPassing clouds.12 mph82%29.74 "Hg4 mi
7:20 PM59 °FPartly sunny.13 mph82%29.74 "Hg4 mi
6:50 PM57 °FPartly sunny.14 mph88%29.74 "Hg4 mi
6:20 PM57 °FPartly sunny.13 mph88%29.71 "Hg4 mi
5:50 PM57 °FBroken clouds.13 mph88%29.71 "Hg4 mi
5:20 PM57 °FPartly sunny.15 mph94%29.71 "Hg4 mi
4:50 PM57 °FPartly sunny.14 mph88%29.71 "Hg4 mi
4:20 PM57 °FPartly sunny.16 mph88%29.71 "Hg4 mi
3:50 PM57 °FDrizzle. Partly sunny.16 mph88%29.71 "Hg3 mi
3:20 PM57 °FDrizzle. Partly sunny.16 mph88%29.71 "Hg4 mi
2:50 PM57 °FDrizzle. Partly sunny.15 mph88%29.71 "Hg4 mi
2:20 PM57 °FDrizzle. Partly sunny.16 mph88%29.71 "Hg4 mi
1:50 PM59 °FMore clouds than sun.16 mph77%29.71 "HgN/A
1:20 PM59 °FBroken clouds.16 mph77%29.71 "Hg5 mi
12:50 PM59 °FBroken clouds.18 mph77%29.71 "Hg5 mi
12:20 PM57 °FPartly sunny.16 mph82%29.71 "Hg5 mi
11:50 AM57 °FLight rain. Partly sunny.16 mph82%29.71 "Hg5 mi
11:20 AM55 °FLight rain. Clear.14 mph88%29.74 "Hg5 mi
10:50 AM55 °FLight rain. Partly sunny.15 mph88%29.74 "Hg5 mi
10:20 AM55 °FClear.14 mph82%29.74 "Hg6 mi
9:50 AM55 °FLight rain. Clear.14 mph82%29.74 "Hg6 mi
9:20 AM55 °FLight rain. Clear.16 mph82%29.74 "Hg6 mi
8:50 AM55 °FClear.15 mph82%29.77 "Hg6 mi
8:20 AM54 °FClear.15 mph82%29.77 "Hg6 mi
7:50 AM54 °FClear.14 mph82%29.77 "Hg6 mi
7:20 AM54 °FClear.15 mph82%29.77 "Hg6 mi
6:20 AM54 °FClear.13 mph82%29.80 "Hg5 mi
5:50 AM54 °FClear.14 mph82%29.80 "Hg5 mi
5:20 AM54 °FClear.12 mph82%29.80 "Hg5 mi
4:50 AM54 °FClear.13 mph88%29.80 "Hg5 mi
4:20 AM54 °FClear.10 mph88%29.83 "Hg5 mi
3:50 AM55 °FPassing clouds.9 mph82%29.83 "Hg4 mi
3:20 AM55 °FPassing clouds.9 mph82%29.83 "Hg4 mi
2:50 AM54 °FPassing clouds.10 mph88%29.86 "Hg4 mi
2:20 AM54 °FPassing clouds.8 mph88%29.86 "Hg5 mi
1:50 AM54 °FClear.9 mph88%29.86 "Hg5 mi
1:20 AM55 °FPassing clouds.10 mph82%29.86 "HgN/A
Weather by CustomWeather, © 2015

See weather overviewHow to use our weather pages